TimeEDT,TemperatureF,Dew PointF,Humidity,Sea Level PressureIn,VisibilityMPH,Wind Direction,Wind SpeedMPH,Gust SpeedMPH,PrecipitationIn,Events,Conditions,WindDirDegrees,DateUTC
12:15 AM,62.6,61.7,97,29.94,4.0,SSW,13.8,-,N/A,,Overcast,200,2013-10-31 04:15:00
12:35 AM,62.2,61.3,97,29.93,5.0,SSW,13.8,-,0.01,,Overcast,200,2013-10-31 04:35:00
12:55 AM,62.2,61.3,97,29.93,5.0,SSW,15.0,-,0.01,,Overcast,200,2013-10-31 04:55:00
1:15 AM,62.6,61.7,97,29.93,4.0,SSW,16.1,23.0,N/A,Rain,Light Rain,200,2013-10-31 05:15:00
1:35 AM,62.6,61.7,97,29.91,3.0,SSW,17.3,23.0,0.01,Rain,Heavy Rain,200,2013-10-31 05:35:00
1:55 AM,62.6,61.5,96,29.91,5.0,SSW,15.0,-,0.01,Rain,Light Rain,200,2013-10-31 05:55:00
2:15 AM,62.2,61.2,96,29.90,7.0,SSW,15.0,-,N/A,,Overcast,200,2013-10-31 06:15:00
2:35 AM,62.1,61.2,97,29.90,5.0,SSW,19.6,26.5,0.01,,Overcast,200,2013-10-31 06:35:00
2:55 AM,61.9,61.3,98,29.89,7.0,SSW,15.0,21.9,0.01,,Overcast,200,2013-10-31 06:55:00
3:15 AM,61.7,61.2,98,29.89,7.0,SSW,15.0,21.9,N/A,,Overcast,200,2013-10-31 07:15:00
3:35 AM,61.3,61.2,99,29.89,5.0,SSW,15.0,-,0.01,,Overcast,200,2013-10-31 07:35:00
3:55 AM,61.2,61.0,99,29.86,7.0,SSW,11.5,-,0.01,,Overcast,200,2013-10-31 07:55:00
4:15 AM,61.0,60.8,99,29.85,7.0,South,10.4,-,0.01,,Overcast,190,2013-10-31 08:15:00
4:35 AM,60.8,60.6,99,29.84,7.0,South,12.7,-,0.01,,Overcast,190,2013-10-31 08:35:00
4:55 AM,60.8,60.4,99,29.84,7.0,SSW,13.8,-,0.01,,Overcast,200,2013-10-31 08:55:00
5:15 AM,61.0,60.1,97,29.83,7.0,South,13.8,-,N/A,,Overcast,190,2013-10-31 09:15:00
5:35 AM,61.0,59.9,96,29.82,10.0,South,13.8,-,N/A,,Overcast,190,2013-10-31 09:35:00
5:55 AM,61.0,59.7,96,29.81,7.0,South,15.0,-,0.01,,Overcast,180,2013-10-31 09:55:00
6:15 AM,61.0,59.4,94,29.80,7.0,SSW,17.3,-,N/A,,Overcast,200,2013-10-31 10:15:00
6:35 AM,61.0,59.0,93,29.80,10.0,SSW,15.0,23.0,N/A,,Overcast,200,2013-10-31 10:35:00
6:55 AM,61.0,58.8,93,29.79,10.0,South,17.3,-,N/A,,Overcast,190,2013-10-31 10:55:00
7:15 AM,60.8,58.3,91,29.78,10.0,SSW,18.4,-,N/A,,Overcast,200,2013-10-31 11:15:00
7:35 AM,60.8,57.9,90,29.78,7.0,SSW,17.3,21.9,N/A,,Overcast,200,2013-10-31 11:35:00
7:55 AM,60.4,57.6,90,29.77,4.0,SSW,15.0,-,N/A,,Overcast,210,2013-10-31 11:55:00
8:15 AM,59.7,57.4,92,29.76,4.0,SSW,18.4,25.3,N/A,,Overcast,210,2013-10-31 12:15:00
8:35 AM,59.2,56.7,91,29.75,3.0,South,15.0,-,0.01,Rain,Light Rain,190,2013-10-31 12:35:00
8:55 AM,59.0,56.8,93,29.75,2.5,SSW,17.3,24.2,0.01,Rain,Light Rain,200,2013-10-31 12:55:00
9:15 AM,59.0,57.2,94,29.74,4.0,South,18.4,23.0,N/A,Rain,Light Rain,190,2013-10-31 13:15:00
9:35 AM,59.2,57.2,93,29.74,4.0,South,18.4,25.3,0.01,Rain,Light Rain,190,2013-10-31 13:35:00
9:55 AM,59.2,57.2,93,29.74,7.0,SSW,18.4,26.5,0.01,,Overcast,200,2013-10-31 13:55:00
10:15 AM,59.5,57.4,93,29.73,7.0,SSW,19.6,26.5,N/A,Rain,Light Rain,200,2013-10-31 14:15:00
10:35 AM,59.7,57.6,93,29.72,5.0,SSW,19.6,26.5,0.01,,Overcast,200,2013-10-31 14:35:00
10:55 AM,59.9,58.1,94,29.72,7.0,SSW,16.1,25.3,0.01,,Overcast,200,2013-10-31 14:55:00
11:15 AM,60.1,58.5,94,29.71,5.0,SSW,20.7,-,N/A,,Overcast,200,2013-10-31 15:15:00
11:35 AM,59.9,58.5,95,29.70,5.0,SSW,18.4,21.9,0.01,Rain,Light Rain,200,2013-10-31 15:35:00
11:55 AM,59.9,58.5,95,29.70,5.0,SSW,17.3,25.3,0.01,Rain,Light Rain,200,2013-10-31 15:55:00
12:15 PM,59.9,58.6,96,29.69,3.0,SSW,19.6,24.2,N/A,Rain,Light Rain,200,2013-10-31 16:15:00
12:35 PM,59.7,58.5,96,29.68,3.0,SSW,19.6,26.5,N/A,Rain,Light Rain,200,2013-10-31 16:35:00
12:55 PM,59.4,58.3,96,29.65,3.0,South,19.6,23.0,0.01,Rain,Light Rain,190,2013-10-31 16:55:00
1:15 PM,59.4,58.1,96,29.63,4.0,South,19.6,25.3,N/A,Rain,Light Rain,190,2013-10-31 17:15:00
1:35 PM,59.2,57.9,96,29.61,4.0,South,18.4,24.2,0.01,Rain,Light Rain,190,2013-10-31 17:35:00
1:55 PM,59.0,57.9,96,29.58,3.0,South,20.7,25.3,0.02,Rain,Light Rain,180,2013-10-31 17:55:00
2:15 PM,59.0,57.7,96,29.54,5.0,South,21.9,27.6,0.01,Rain,Light Rain,180,2013-10-31 18:15:00
2:35 PM,59.0,57.6,95,29.53,2.0,South,23.0,28.8,0.02,Rain,Light Rain,180,2013-10-31 18:35:00
2:55 PM,59.0,57.7,96,29.51,5.0,South,21.9,28.8,0.02,,Overcast,180,2013-10-31 18:55:00
3:15 PM,58.8,57.7,96,29.49,2.5,South,20.7,28.8,N/A,,Overcast,180,2013-10-31 19:15:00
3:35 PM,58.6,57.6,96,29.47,2.5,South,23.0,26.5,0.02,,Overcast,180,2013-10-31 19:35:00
3:55 PM,58.6,57.7,97,29.45,5.0,South,21.9,26.5,0.03,,Overcast,180,2013-10-31 19:55:00
4:15 PM,59.2,58.1,96,29.44,7.0,South,20.7,28.8,0.01,,Overcast,190,2013-10-31 20:15:00
4:35 PM,59.5,58.3,96,29.43,10.0,South,23.0,29.9,0.02,,Overcast,190,2013-10-31 20:35:00
4:55 PM,59.9,58.8,96,29.43,7.0,South,21.9,32.2,0.03,,Overcast,190,2013-10-31 20:55:00
5:15 PM,60.1,59.0,96,29.42,4.0,South,18.4,26.5,0.01,,Overcast,190,2013-10-31 21:15:00
5:35 PM,59.9,59.4,98,29.41,2.0,SSW,13.8,-,0.02,Rain,Light Rain,200,2013-10-31 21:35:00
5:55 PM,60.1,59.5,98,29.39,4.0,South,15.0,20.7,0.03,,Overcast,190,2013-10-31 21:55:00
6:15 PM,60.3,59.9,99,29.38,4.0,South,16.1,25.3,0.01,Rain,Light Rain,190,2013-10-31 22:15:00
6:35 PM,60.4,59.9,98,29.36,5.0,South,16.1,23.0,0.02,Rain,Light Rain,190,2013-10-31 22:35:00
6:55 PM,61.0,60.3,97,29.34,7.0,South,17.3,23.0,0.03,Rain,Light Rain,190,2013-10-31 22:55:00
7:15 PM,61.3,60.8,98,29.36,1.5,SW,13.8,20.7,0.01,Rain,Heavy Rain,230,2013-10-31 23:15:00
7:35 PM,61.0,60.6,99,29.38,2.0,SW,23.0,29.9,0.03,Rain,Rain,230,2013-10-31 23:35:00
7:55 PM,60.4,59.4,96,29.35,4.0,SW,18.4,24.2,0.05,Rain,Rain,220,2013-10-31 23:55:00
8:15 PM,60.1,58.6,95,29.34,7.0,SW,16.1,21.9,0.01,Rain,Light Rain,220,2013-11-01 00:15:00
8:35 PM,60.3,58.6,94,29.34,7.0,SW,19.6,24.2,0.03,,Overcast,220,2013-11-01 00:35:00
8:55 PM,60.3,59.0,96,29.31,5.0,SW,13.8,-,0.05,Rain,Light Rain,230,2013-11-01 00:55:00
9:15 PM,59.9,58.8,96,29.29,2.5,SW,15.0,19.6,0.02,Rain,Heavy Rain,230,2013-11-01 01:15:00
9:35 PM,59.4,58.6,97,29.29,2.5,WSW,15.0,20.7,0.04,Rain,Rain,250,2013-11-01 01:35:00
9:55 PM,59.2,58.6,98,29.32,2.5,WSW,26.5,36.8,0.07,Rain,Rain,250,2013-11-01 01:55:00
10:15 PM,59.0,57.7,96,29.30,7.0,West,27.6,38.0,0.03,,Overcast,280,2013-11-01 02:15:00
10:35 PM,57.7,56.1,94,29.31,10.0,WNW,24.2,29.9,0.07,,Overcast,300,2013-11-01 02:35:00
10:55 PM,55.8,54.3,95,29.36,10.0,West,17.3,26.5,0.11,Rain,Light Rain,280,2013-11-01 02:55:00
11:15 PM,55.2,53.8,95,29.39,7.0,West,15.0,-,0.03,Rain,Light Rain,270,2013-11-01 03:15:00
11:35 PM,55.0,53.6,95,29.39,7.0,West,15.0,23.0,0.07,Rain,Light Rain,270,2013-11-01 03:35:00
11:55 PM,54.7,53.1,94,29.39,7.0,WNW,20.7,26.5,0.11,,Overcast,290,2013-11-01 03:55:00